Location: Hastringsfeld
(50.9620°N, 10.4787°E)
Time: 11:50:35
(UTC+00:00)

GP-B - Pass Details

Date: 26 September 2023
Orbit: 627 x 630 km, 89.8° (Epoch: 09 December)

Event Time Altitude Azimuth Distance (km) Brightness Sun altitude
Rises 04:10:24 0° 195° (SSW) 2,904 6.2 -10.1°
Reaches altitude 10° 04:12:41 10° 202° (SSW) 2,002 5.4 -9.8°
Maximum altitude 04:16:53 44° 274° (W) 881 3.4 -9.1°
Drops below altitude 10° 04:21:08 10° 347° (NNW) 2,021 5.7 -8.5°
Sets 04:23:28 0° 354° (N) 2,934 6.6 -8.1°
